This demonstration page uses our WeatherBlox Daily Observations layout. Learn more.

38.88101, -77.10428

Hourly Observations for October 7, 2020

Temp ( °F °C ) Dew Point ( °F °C ) Humidity (%) Winds ( mph kmh ) Pressure ( in mb ) Visibility ( mi km ) Precip ( " mm )
12:52 am 00:52 Mostly Clear 60 15.6 56 13.3 86 86 SSW 5 7 29.96 1015 10 16.0934 0 0
1:52 am 01:52 Mostly Clear 59 15 55 12.8 87 87 SSW 8 13 29.94 1014 10 16.0934 0 0
2:52 am 02:52 Mostly Clear 58 14.4 55 12.8 90 90 SSW 8 13 29.93 1014 10 16.0934 0 0
3:52 am 03:52 Partly Cloudy 57 13.9 54 12.2 90 90 SSW 5 7 29.92 1013 10 16.0934 0 0
4:52 am 04:52 Partly Cloudy 57 13.9 54 12.2 90 90 SSW 5 7 29.92 1013 10 16.0934 0 0
5:52 am 05:52 Partly Cloudy 56 13.3 54 12.2 93 93 SW 6 9 29.92 1013 10 16.0934 0 0
6:52 am 06:52 Partly Cloudy 56 13.3 54 12.2 93 93 SW 5 7 29.91 1013 10 16.0934 0 0
7:52 am 07:52 Mostly Sunny 58 14.4 56 13.3 93 93 SSW 6 9 29.9 1013 10 16.0934 0 0
8:52 am 08:52 Mostly Sunny 61 16.1 57 13.9 87 87 SSW 8 13 29.91 1013 10 16.0934 0 0
9:52 am 09:52 Sunny 65 18.3 58 14.4 78 78 S 8 13 29.91 1013 10 16.0934 0 0
10:52 am 10:52 Sunny 71 21.7 57 13.9 61 61 SSW 14 22 29.88 1012 10 16.0934 0 0
11:52 am 11:52 Sunny 74 23.3 56 13.3 54 54 SW 18 30 29.84 1011 10 16.0934 0 0
12:52 pm 12:52 Mostly Sunny 77 25 53 11.7 43 43 SSW 12 19 29.82 1010 10 16.0934 0 0
1:52 pm 13:52 Mostly Sunny 78 25.6 53 11.7 42 42 SW 10 17 29.78 1009 10 16.0934 0 0
2:52 pm 14:52 Mostly Sunny 80 26.7 54 12.2 41 41 SW 17 28 29.75 1007 10 16.0934 0 0
3:52 pm 15:52 Mostly Sunny 80 26.7 55 12.8 42 42 SSW 14 22 29.72 1007 10 16.0934 0 0
4:52 pm 16:52 Mostly Sunny 80 26.7 55 12.8 42 42 SSW 14 22 29.71 1006 10 16.0934 0 0
5:52 pm 17:52 Mostly Sunny 78 25.6 57 13.9 48 48 SSW 12 19 29.72 1007 10 16.0934 0 0
6:52 pm 18:52 Mostly Clear 75 23.9 56 13.3 52 52 WSW 8 13 29.75 1007 10 16.0934 0 0
7:52 pm 19:52 Partly Cloudy 76 24.4 56 13.3 50 50 W 7 11 29.78 1009 10 16.0934 0 0
8:52 pm 20:52 Partly Cloudy 73 22.8 55 12.8 53 53 SSW 6 9 29.8 1009 10 16.0934 0 0
9:52 pm 21:52 Mostly Cloudy 72 22.2 56 13.3 57 57 Calm 29.83 1010 10 16.0934 0 0
10:52 pm 22:52 Partly Cloudy 70 21.1 58 14.4 66 66 NNW 9 15 29.86 1011 10 16.0934 0 0
11:52 pm 23:52 Mostly Clear 67 19.4 52 11.1 59 59 N 7 11 29.88 1012 10 16.0934 0 0

Powered by AerisWeather